Regional Weather Roundup
Issued by NWS Boston, MA

Current Version | Previous Version | Text Only | Print | Product List | Glossary Off
Versions: 1 2 3 4 5 6 7 8 9 10 11 12 13 14 15 16 17 18 19 20 21 22 23 24 25 26 27

000
ASUS41 KBOX 300410
RWRBOX

REGIONAL WEATHER ROUNDUP
NATIONAL WEATHER SERVICE TAUNTON MA
1200 AM EDT SUN APR 30 2017

NOTE:  "FAIR" INDICATES FEW OR NO CLOUDS BELOW 12,000 FEET WITH NO
SIGNIFICANT WEATHER AND/OR OBSTRUCTIONS TO VISIBILITY.

MAZALL-300500-
EASTERN MASSACHUSETTS

CITY           SKY/WX    TMP DP  RH WIND       PRES   REMARKS
BOSTON         CLEAR     66  41  40 W13       30.03R
BEVERLY        CLEAR     65  43  44 W13       30.02R
LAWRENCE       CLEAR     65  41  41 W12G20    30.05R
BEDFORD        CLEAR     61  39  44 W7        30.03R
BLUE HILL        N/A     63  37  38 W14G23    30.03R
NORWOOD        CLEAR     66  39  37 W12       30.03R
MARSHFIELD     CLEAR     66  46  48 VRB7      30.01R
PLYMOUTH       CLEAR     65  45  48 W10       30.03R
TAUNTON        CLEAR     66  44  45 NW6       30.03R
NEW BEDFORD    CLEAR     65  46  50 NW6       30.04R
$$

MAZALL-300500-
CAPE COD AND THE ISLANDS

CITY           SKY/WX    TMP DP  RH WIND       PRES   REMARKS
FALMOUTH       PTCLDY    66  48  52 MISG      30.04R
HYANNIS        PTCLDY    68  49  50 W10G16    30.00R
CHATHAM        CLOUDY    69  50  50 W8        30.01R
PROVINCETOWN   PTCLDY    58  47  66 W14       30.01R
NANTUCKET      CLOUDY    66  51  58 W16       30.02R
MARTHAS VNYRD  CLEAR     66  49  54 N9        30.03R
$$

MAZALL-300500-
CENTRAL AND WESTERN MASSACHUSETTS

CITY           SKY/WX    TMP DP  RH WIND       PRES   REMARKS
WORCESTER      CLEAR     58  35  42 W14       30.08R
FITCHBURG      CLEAR     62  40  44 W13       30.07R
ORANGE         CLEAR     58  40  51 W12G23    30.09R
SPRINGFIELD    CLEAR     59  37  43 NW13      30.09R
WESTFIELD      CLEAR     60  37  42 NW9       30.11R
NORTH ADAMS    CLEAR     52  36  54 W9        30.14R
PITTSFIELD     CLEAR     51  32  48 W12G18    30.14R
$$

RIZALL-300500-
RHODE ISLAND

CITY           SKY/WX    TMP DP  RH WIND       PRES   REMARKS
PROVIDENCE     PTCLDY    67  42  40 NW10      30.06R
NEWPORT        CLOUDY    64  49  57 NW7       30.05R
BLOCK ISLAND   CLOUDY    65  51  60 NW8G16    30.08R
SMITHFIELD     CLEAR     63  38  39 NW12G18   30.07R
WESTERLY       CLOUDY    68  50  52 VRB6      30.07S
$$

CTZALL-300500-
CONNECTICUT

CITY           SKY/WX    TMP DP  RH WIND       PRES   REMARKS
BRADLEY INTL   PTCLDY    62  43  49 NW6       30.11R
HARTFORD       CLEAR     65  46  50 NW8       30.10R
BRIDGEPORT     PTCLDY    68  53  58 NW5       30.09R
DANBURY        CLEAR     61  53  75 W5        30.13R
GROTON         CLEAR     66  50  56 W7        30.07R
NEW HAVEN      CLEAR     66  51  58 NW3       30.09R
CHESTER        FAIR      64  52  63 NW6G12    30.09S
MERIDEN        CLEAR     65  51  60 CALM      30.09S
WILLIMANTIC    CLEAR     66  45  46 VRB6      30.09R
OXFORD         CLEAR     63  46  55 NW6       30.10F
$$

MEZ002-015-021-024-NHZ003-005-008-011-012-014-VTZ005-008-300500-
NORTHERN NEW ENGLAND

CITY           SKY/WX    TMP DP  RH WIND       PRES   REMARKS
PORTLAND ME    CLEAR     60  33  36 N16G29    30.01R
BANGOR ME      CLEAR     48  27  44 NW16G28   30.03R
CONCORD NH     CLEAR     59  35  40 NW13      30.06R
MANCHESTER NH  CLEAR     62  35  36 NW12      30.04R
NASHUA NH      CLEAR     62  41  46 NW9         N/A
PORTSMOUTH NH  CLEAR     61  40  46 NW18      30.01R
JAFFREY NH     CLEAR     57  42  57 W8        30.08R
KEENE NH       CLEAR     58  41  53 W7        30.08R
BURLINGTON VT  CLEAR     45  26  47 N15G22    30.22R
MT. WASHINGTON FOG       21  21 100 NW75G86     N/A  VSB 1/8 WCI  -4
$$

NYZ052-076-300500-
EASTERN NEW YORK

CITY           SKY/WX    TMP DP  RH WIND       PRES   REMARKS
ALBANY         CLEAR     52  33  48 W16G25    30.17R
NEW YORK CITY  CLOUDY    71  54  54 N16       30.11R
$$

ANZALL-300500-
MARINE OBSERVATIONS

STATION/POSITION TIME  TEMP    WIND        PRES    VSBY  WAVE
                       AIR SEA DIR/SP/G                  HT/PER
                 (UTC) (F)     (DEG/KT/KT) (MB)    (MI)  (FT/S)
BOSTON BUOY      0250   57 49  280/ 12/ 14 1015.0          2/ 8
BUZZARDS BAY     0300   64     290/ 18/ 20 1017.5R
NANTUCKET SOUND  0350      50              1016.0R         1/ 3
MASS BAY-STELLWA 0304   57 47  270/ 12/ 14 1014.7R         2/ 8
ISLE OF SHOALS   0300   67     270/ 22/ 23 1014.0R
S OF BLOCK IS    0355      48                N/A           4/ 7
$$

......................KEY.........................
  SKY/WX - SKY CONDITION/PRESENT WEATHER
  TMP    - TEMPERATURE IN FAHRENHEIT
  DWPT   - DEWPOINT IN FAHRENHEIT
  RH     - RELATIVE HUMIDITY IN PERCENT
  WIND   - DIRECTION AND SPEED IN MPH
  PRES   - MEAN SEA LEVEL PRESSURE IN INCHES OF HG
  WCI    - WIND CHILL INDEX
  VSB    - VISIBILITY IN MILES
  HX     - HEAT INDEX
  TC     - TEMPERATURE IN CELSIUS
  VRB    - VARIABLE WIND DIRECTION
  N/A    - NOT AVAILABLE




USA.gov is the U.S. government's official web portal to all federal, state and local government web resources and services.